Glendale Luke AFB, AZ

5:43 PM MST on December 17, 2017 (GMT -0700)
Luke Air Force Base

Weather History for KLUF - November, 2013

Change the Weather History Date:

Monday, November 4, 2013

  Actual Average Record
Temperature  
Mean Temperature 63 °F -  
Max Temperature 78 °F 83 °F 95 °F (1980)
Min Temperature 48 °F 45 °F 29 °F (1922)
Degree Days  
Heating Degree Days 2    
Growing Degree Days 13 (Base 50)    
Moisture  
Dew Point 40 °F    
Average Humidity 46    
Maximum Humidity 85    
Minimum Humidity 20    
Precipitation  
Precipitation 0.07 in - - ()
Sea Level Pressure  
Sea Level Pressure 29.74 in    
Wind  
Wind Speed 7 mph (NW)    
Max Wind Speed 33 mph    
Max Gust Speed 41 mph    
Visibility 10 miles    
Events Rain , Thunderstorm    
Averages and records for this station are not official NWS values.
T = Trace of Precipitation, MM = Missing Value Source: NWS Daily Summary

Daily Weather History Graph

Daily Weather History Graph

Search for Another Location

Airport or City:

Trip Planner

Search our weather history database for the weather conditions in past years. The results will help you decide how hot, cold, wet, or windy it might be!

Date:

Astronomy

Nov. 04, 2013 Rise Set
Actual Time 6:51 AM MST 5:34 PM MST
Civil Twilight 6:25 AM MST 6:00 PM MST
Nautical Twilight 5:55 AM MST 6:29 PM MST
Astronomical Twilight 5:26 AM MST 6:58 PM MST
Moon 8:02 AM MST (11/4) 6:46 PM MST (11/4)
Length of Visible Light 11h 34m
Length of Day
10h 43m
New Moon, 2% of the Moon is Illuminated
Nov 4
New Moon
Nov 9
First Quarter
Nov 17
Full
Nov 25
Last Quarter
Dec 2
New

Hourly Weather History & Observations

Time (MST) Temp. Dew Point Humidity Pressure Visibility Wind Dir Wind Speed Gust Speed Precip Events Conditions
12:58 AM 55.0 °F 29.5 °F 38% 29.73 in 10.0 mi WNW 6.9 mph - N/A   Clear
1:58 AM 53.1 °F 28.9 °F 40% 29.72 in 10.0 mi NNE 5.8 mph - N/A   Clear
2:58 AM 51.6 °F 30.9 °F 45% 29.72 in 10.0 mi North 4.6 mph - N/A   Clear
3:58 AM 50.5 °F 29.3 °F 44% 29.72 in 10.0 mi NNE 2.3 mph - N/A   Partly Cloudy
4:58 AM 48.9 °F 28.6 °F 45% 29.72 in 10.0 mi NNW 6.9 mph - N/A   Clear
5:58 AM 48.6 °F 29.7 °F 48% 29.75 in 10.0 mi NNW 8.1 mph - N/A   Clear
6:58 AM 48.6 °F 29.7 °F 48% 29.76 in 10.0 mi NNW 6.9 mph - N/A   Partly Cloudy
7:58 AM 52.9 °F 30.0 °F 42% 29.78 in 10.0 mi North 4.6 mph - N/A   Clear
8:58 AM 60.3 °F 31.8 °F 34% 29.79 in 10.0 mi NNW 3.5 mph - N/A   Clear
9:58 AM 65.1 °F 33.6 °F 31% 29.78 in 10.0 mi NNW 3.5 mph - N/A   Clear
10:58 AM 70.0 °F 36.1 °F 29% 29.77 in 10.0 mi NNE 1.2 mph - N/A   Clear
11:58 AM 72.0 °F 37.6 °F 29% 29.75 in 10.0 mi Variable 4.6 mph - N/A   Clear
12:58 PM 75.0 °F 34.9 °F 23% 29.71 in 10.0 mi Calm Calm - N/A   Clear
1:58 PM 76.8 °F 34.2 °F 21% 29.68 in 10.0 mi South 3.5 mph - 0.00 in   Clear
2:58 PM 77.7 °F 34.2 °F 21% 29.67 in 10.0 mi Calm Calm - N/A   Mostly Cloudy
3:58 PM 78.1 °F 33.3 °F 20% 29.67 in 10.0 mi NNW 3.5 mph - N/A   Mostly Cloudy
4:58 PM 76.8 °F 36.9 °F 24% 29.68 in 10.0 mi WSW 5.8 mph - N/A   Mostly Cloudy
5:58 PM 74.5 °F 39.4 °F 28% 29.68 in 10.0 mi WSW 2.3 mph - N/A   Mostly Cloudy
6:28 PM 73.4 °F 39.2 °F 29% 29.69 in 10.0 mi NW 4.6 mph - N/A   Mostly Cloudy
6:48 PM 71.6 °F 39.2 °F 31% 29.69 in 10.0 mi North 4.6 mph - N/A   Scattered Clouds
6:58 PM 71.6 °F 37.4 °F 29% 29.68 in 10.0 mi North 3.5 mph - N/A   Mostly Cloudy
7:48 PM 69.8 °F 35.6 °F 28% 29.72 in 10.0 mi SSW 21.9 mph 33.4 mph N/A Rain , Thunderstorm Light Thunderstorms and Rain
7:53 PM 71.6 °F 39.2 °F 31% 29.72 in 7.0 mi South 33.4 mph 41.4 mph N/A Thunderstorm Thunderstorm
7:58 PM 68.0 °F 51.8 °F 56% 29.75 in 3.0 mi SSW 16.1 mph - 0.01 in Rain , Thunderstorm Light Thunderstorms and Rain
8:08 PM 64.4 °F 51.8 °F 64% 29.76 in 7.0 mi West 13.8 mph 18.4 mph N/A Rain , Thunderstorm Light Thunderstorms and Rain
8:09 PM 64.4 °F 51.8 °F 64% 29.75 in 9.0 mi West 15.0 mph 18.4 mph N/A Rain Light Rain
8:49 PM 60.8 °F 53.6 °F 77% 29.78 in 10.0 mi WNW 11.5 mph - N/A   Mostly Cloudy
8:58 PM 61.5 °F 53.4 °F 75% 29.77 in 10.0 mi NW 9.2 mph - 0.06 in   Partly Cloudy
9:28 PM 60.8 °F 55.4 °F 82% 29.79 in 10.0 mi North 11.5 mph - N/A   Mostly Cloudy
9:38 PM 60.8 °F 55.4 °F 82% 29.79 in 10.0 mi NNW 9.2 mph - N/A   Scattered Clouds
9:58 PM 60.6 °F 54.1 °F 79% 29.77 in 10.0 mi North 10.4 mph - N/A   Clear
10:58 PM 59.2 °F 53.1 °F 80% 29.79 in 10.0 mi NNE 3.5 mph - N/A   Clear
11:58 PM 57.9 °F 53.4 °F 85% 29.80 in 10.0 mi WSW 3.5 mph - N/A   Clear